, AK

(GMT )
Deadhorse

Weather History for PASC - January, 2013

Change the Weather History Date:

Saturday, January 12, 2013

  Actual Average Record
Temperature  
Mean Temperature -14 °F -  
Max Temperature -9 °F -5 °F 111 °F (2008)
Min Temperature -18 °F -17 °F -49 °F (1991)
Degree Days  
Heating Degree Days 78    
Moisture  
Dew Point -21 °F    
Average Humidity 73    
Maximum Humidity 77    
Minimum Humidity 70    
Precipitation  
Precipitation 0.00 in - - ()
Sea Level Pressure  
Sea Level Pressure 30.20 in    
Wind  
Wind Speed 21 mph (ENE)    
Max Wind Speed 36 mph    
Max Gust Speed 44 mph    
Visibility 3 miles    
Events Fog , Snow    
Averages and records for this station are not official NWS values.
T = Trace of Precipitation, MM = Missing Value Source: NWS Daily Summary

Daily Weather History Graph

Daily Weather History Graph

Search for Another Location

Airport or City:

Trip Planner

Search our weather history database for the weather conditions in past years. The results will help you decide how hot, cold, wet, or windy it might be!

Date:

Astronomy

Jan. 12, 2013 Rise Set
Actual Time 12:29 PM AKST 1:34 PM AKST
Civil Twilight 10:21 AM AKST 3:44 PM AKST
Nautical Twilight 8:45 AM AKST 5:19 PM AKST
Astronomical Twilight 7:28 AM AKST 6:36 PM AKST
Moon 10:52 AM AKST (1/12) 5:30 PM AKST (1/12)
Length of Visible Light 5h 23m
Length of Day
1h 04m
New Moon, 2% of the Moon is Illuminated
Jan 12
New Moon
Jan 18
First Quarter
Jan 26
Full
Feb 3
Last Quarter
Feb 9
New

Hourly Weather History & Observations

Time (AKST) Temp. Windchill Dew Point Humidity Pressure Visibility Wind Dir Wind Speed Gust Speed Precip Events Conditions
12:53 AM -16.1 °F -42.1 °F -23.1 °F 71% 30.20 in 8.0 mi ENE 18.4 mph - N/A   Mostly Cloudy
1:53 AM -17.0 °F -43.3 °F -23.1 °F 74% 30.22 in 9.0 mi ENE 18.4 mph - N/A   Partly Cloudy
2:53 AM -17.0 °F -41.9 °F -23.1 °F 74% 30.22 in 9.0 mi ENE 16.1 mph - N/A   Clear
3:53 AM -17.0 °F -40.2 °F -24.0 °F 70% 30.23 in 10.0 mi ENE 13.8 mph - N/A   Clear
4:53 AM -18.0 °F -43.3 °F -24.0 °F 74% 30.24 in 10.0 mi ENE 16.1 mph - N/A   Clear
5:53 AM -18.9 °F -43.6 °F -25.1 °F 74% 30.25 in 8.0 mi ENE 15.0 mph - N/A   Clear
6:53 AM -18.0 °F -43.3 °F -25.1 °F 70% 30.25 in 7.0 mi ENE 16.1 mph - N/A   Scattered Clouds
7:53 AM -18.0 °F -44.7 °F -25.1 °F 70% 30.23 in 3.0 mi ENE 18.4 mph - N/A Snow Blowing Snow
8:53 AM -18.0 °F -46.7 °F -24.0 °F 74% 30.23 in 3.0 mi East 21.9 mph - N/A Snow Blowing Snow
9:53 AM -18.0 °F -44.0 °F -24.0 °F 74% 30.24 in 3.0 mi ENE 17.3 mph - N/A Snow Blowing Snow
10:53 AM -15.0 °F -41.4 °F -20.9 °F 75% 30.25 in 3.0 mi East 19.6 mph - N/A Snow Blowing Snow
11:04 AM -14.8 °F -41.2 °F -20.2 °F 77% 30.23 in 1.5 mi East 19.6 mph - N/A Snow Blowing Snow
11:53 AM -13.0 °F -40.6 °F -18.9 °F 75% 30.23 in 1.5 mi East 23.0 mph - N/A Snow Blowing Snow
12:53 PM -11.9 °F -40.2 °F -18.9 °F 71% 30.23 in 1.2 mi ENE 25.3 mph - N/A Snow Blowing Snow
1:24 PM -13.0 °F -41.1 °F -20.2 °F 70% 30.22 in 1.2 mi ENE 24.2 mph - N/A Snow Blowing Snow
1:35 PM -14.8 °F -44.0 °F -20.2 °F 77% 30.22 in 1.5 mi ENE 25.3 mph 29.9 mph N/A Snow Blowing Snow
1:45 PM -14.8 °F -43.5 °F -20.2 °F 77% 30.22 in 1.2 mi ENE 24.2 mph - N/A Snow Blowing Snow
1:53 PM -14.1 °F -42.5 °F -20.0 °F 75% 30.23 in 1.2 mi ENE 24.2 mph - N/A Snow Blowing Snow
2:53 PM -13.0 °F -40.0 °F -20.0 °F 71% 30.22 in 1.0 mi ENE 21.9 mph 29.9 mph N/A Snow Blowing Snow
3:53 PM -11.9 °F -40.2 °F -18.9 °F 71% 30.22 in 1.0 mi East 25.3 mph - N/A Snow Blowing Snow
4:53 PM -13.0 °F -40.6 °F -20.0 °F 71% 30.21 in 1.2 mi ENE 23.0 mph - N/A Snow Blowing Snow
5:53 PM -13.0 °F -41.1 °F -20.0 °F 71% 30.19 in 1.0 mi ENE 24.2 mph - N/A Snow Blowing Snow
6:12 PM -13.0 °F -42.6 °F -20.2 °F 70% 30.17 in 0.8 mi ENE 27.6 mph - N/A Snow Blowing Snow
6:53 PM -11.9 °F -41.1 °F -18.9 °F 71% 30.17 in 0.5 mi ENE 27.6 mph - N/A Snow Blowing Snow
7:53 PM -11.9 °F -40.6 °F -18.9 °F 71% 30.15 in 0.5 mi East 26.5 mph - N/A Snow Blowing Snow
8:53 PM -11.0 °F -40.8 °F -18.0 °F 71% 30.12 in 0.5 mi ENE 29.9 mph - N/A Snow Blowing Snow
9:53 PM -9.9 °F -40.5 °F -17.0 °F 71% 30.10 in 0.2 mi East 33.4 mph 41.4 mph N/A Fog , Snow Blowing Snow
10:53 PM -9.0 °F -40.0 °F -16.1 °F 71% 30.06 in 0.2 mi East 35.7 mph 43.7 mph N/A Fog , Snow Blowing Snow
11:53 PM -9.0 °F -39.3 °F -15.0 °F 75% 30.03 in 0.2 mi East 33.4 mph 41.4 mph N/A Fog , Snow Blowing Snow